Location: ??????
(33.3472°N, 35.4764°E)
Time: 08:34:59
(UTC+00:00)

Cosmos 1110 Rocket - Pass Details

Date: 21 August 2019
Orbit: 752 x 782 km, 74.0° (Epoch: 21 September)

Event Time Altitude Azimuth Distance (km) Brightness Sun altitude
Exits shadow 00:37:09 74° 17° (NNE) 797 4.0 -28.1°
Drops below altitude 10° 00:41:55 10° 17° (NNE) 2,315 7.2 -27.3°
Sets 00:44:19 0° 17° (NNE) 3,250 8.1 -26.9°
